Regional Weather Roundup
Issued by NWS San Angelo, TX

Home | Current Version | Previous Version | Text Only | Print | Product List | Glossary On
Versions: 1 2 3 4 5 6 7 8 9 10 11 12 13 14 15 16 17 18 19 20 21 22 23 24 25 26 27 28 29 30 31 32 33 34 35 36 37 38 39 40 41 42 43 44 45 46 47 48 49 50
000
ASUS44 KSJT 061511
RWRSJT
WEST CENTRAL TEXAS REGIONAL WEATHER ROUNDUP
NATIONAL WEATHER SERVICE SAN ANGELO TX
1000 AM CDT FRI MAY 06 2016

NOTE: "FAIR" INDICATES FEW OR NO CLOUDS BELOW 12,000 FEET WITH NO
SIGNIFICANT WEATHER AND/OR OBSTRUCTIONS TO VISIBILITY.

TXZ049-054-064>066-071>073-076>078-098-099-113-114-127-128-139-140-
154-155-168>170-061600
...LOCATIONS ACROSS WEST CENTRAL TEXAS...

CITY           SKY/WX    TMP DP  RH WIND       PRES   REMARKS
SAN ANGELO     SUNNY     73  51  46 S12       30.09S
ABILENE        SUNNY     72  54  53 S12       30.11R
DYESS AFB      SUNNY     74  56  54 SE15      30.09R
JUNCTION       SUNNY     73  51  46 E7        30.11S
SWEETWATER     SUNNY     73  49  41 S17       30.13R
BROWNWOOD      SUNNY     72  50  46 SE12      30.12S
COLEMAN        SUNNY     74  51  45 S12       30.12R
SONORA         SUNNY     75  48  38 S12       30.14F
OZONA          FAIR      73  45  35 S20G25    30.11F
BRADY          NOT AVBL
$$

TEXAS PANHANDLE/OKLAHOMA PANHANDLE

CITY           SKY/WX    TMP DP  RH WIND       PRES   REMARKS
AMARILLO       SUNNY     68  42  38 S20       30.10S
BORGER         SUNNY     69  45  41 S8        30.10S
CANADIAN       SUNNY     71  52  50 S14       30.09S
DALHART        SUNNY     68  42  38 SW10      30.10F
DUMAS          SUNNY     69  41  35 S16       30.09S
GUYMON         NOT AVBL
HEREFORD       SUNNY     73  40  30 SW16      30.10F
PAMPA          SUNNY     72  49  44 S10G16    30.11S
PERRYTON       SUNNY     71  51  49 S15       30.10S
$$

SOUTHERN PANHANDLE/SOUTH PLAINS/ROLLING PLAINS

CITY           SKY/WX    TMP DP  RH WIND       PRES   REMARKS
LUBBOCK        MOSUNNY   71  40  32 S22G29    30.09S
SNYDER           N/A     71  47  42 S14G20    30.11R
CHILDRESS      SUNNY     72  52  49 S17       30.09R
SEMINOLE       SUNNY     71  39  31 S17       30.08F
$$

PERMIAN BASIN

CITY           SKY/WX    TMP DP  RH WIND       PRES   REMARKS
MIDLAND        SUNNY     76  42  29 S26G36    30.06S
ODESSA         SUNNY     75  40  28 S22G31    30.07S
WINK           SUNNY     75  39  27 SE24      30.00F
$$

FAR WEST/SOUTHWEST MOUNTAINS/TRANS PECOS

CITY           SKY/WX    TMP DP  RH WIND       PRES   REMARKS
ALPINE         SUNNY     74  35  24 S13       30.15S
DRYDEN           N/A     78  45  30 E15G21    30.04S
EL PASO        SUNNY     74  30  19 VRB7      29.97S
FORT STOCKTON  SUNNY     78  38  23 S20G29    30.02S
GUADALUPE PASS SUNNY     72  32  23 CALM      30.10F
MARFA          SUNNY     74  36  25 SE17      30.13S
PECOS          SUNNY     78  37  22 SE16      29.99S
$$

DALLAS/FORT WORTH METROPLEX

CITY           SKY/WX    TMP DP  RH WIND       PRES   REMARKS
DFW AIRPORT    PTSUNNY   75  49  39 SE6       30.11R
FTW MEACHAM    SUNNY     73  52  47 SE6       30.11S
DAL-EXECUTIVE  SUNNY     73  49  42 SE6       30.11R
GRAND PRAIRIE  SUNNY     72  48  43 E5        30.13R
ADDISON        SUNNY     73  46  38 SE6       30.12R
MESQUITE       SUNNY     72  52  49 E3        30.12R
LANCASTER      SUNNY     71  48  44 CALM      30.12R
$$

NORTH CENTRAL TEXAS

CITY           SKY/WX    TMP DP  RH WIND       PRES   REMARKS
SHRMAN/DENISON SUNNY     69  46  43 E5        30.13S
GAINESVILLE    SUNNY     70  53  56 SE3       30.14S
BRIDGEPORT     SUNNY     71  54  54 SE8       30.13R
DENTON         SUNNY     70  55  59 SE6       30.12R
WAXAHACHIE     SUNNY     72  52  50 E5        30.13S
GRANBURY       SUNNY     72  57  58 E7        30.12S
$$

WESTERN NORTH TEXAS

CITY           SKY/WX    TMP DP  RH WIND       PRES   REMARKS
WICHITA FALLS  CLOUDY    70  52  52 S10       30.10S
VERNON         SUNNY     73  44  35 SE13      30.10S
BRECKENRIDGE   SUNNY     74  47  38 S9        30.11R
COMANCHE       SUNNY     71  53  53 S7        30.12S
$$

CENTRAL AND SOUTH CENTRAL TEXAS

CITY           SKY/WX    TMP DP  RH WIND       PRES   REMARKS
AUSTIN/BERGSTM MOSUNNY   73  55  53 SE3       30.11R
WACO           SUNNY     72  50  45 VRB3      30.11S
HILLSBORO      SUNNY     72  52  49 SE5       30.12S
TEMPLE         SUNNY     72  55  55 S5        30.12R
KILLEEN-GRAY   SUNNY     71  54  53 SE7       30.11R
FORT HOOD      SUNNY     73  51  45 SE6       30.10R
GEORGETOWN     SUNNY     73  52  46 SE6       30.12R
LAGO VISTA     FAIR      74  49  41 SE5       30.13R
SAN MARCOS     SUNNY     73  55  53 SE6       30.12R
NEW BRAUNFELS  SUNNY     75  52  44 SE8       30.10R
RANDOLPH AFB   SUNNY     73  54  52 VRB5      30.11R
SAN ANTONIO    MOSUNNY   73  50  44 SE10      30.12R
STINSON        SUNNY     76  52  43 SE7       30.09R
PLEASANTON     NOT AVBL
LA GRANGE        N/A     74  56  52 SE3       30.09R
GIDDINGS       SUNNY     74  51  44 SE5       30.14R
$$

EAST TEXAS

CITY           SKY/WX    TMP DP  RH WIND       PRES   REMARKS
PARIS          MOSUNNY   66  46  48 E7        30.14R
CLARKSVILLE    NOT AVBL
TYLER          MOSUNNY   72  53  51 NE6       30.11S
LONGVIEW       SUNNY     68  54  60 E5        30.11R
PALESTINE      SUNNY     73  50  44 E7        30.12R
NACOGDOCHES    SUNNY     72  54  53 E5        30.10R
$$

TEXAS HILL COUNTRY AND EDWARDS PLATEAU

CITY           SKY/WX    TMP DP  RH WIND       PRES   REMARKS
LLANO          SUNNY     73  52  46 SE7       30.15S
HORSESHOE BAY  FAIR      74  50  42 SE7       30.12R
KERRVILLE      SUNNY     71  58  64 SE5       30.14R
FREDERICKSBRG  SUNNY     71  50  47 S8        30.13R
ROCKSPRINGS    SUNNY     73  50  43 S13       30.14F
HONDO          SUNNY     75  52  44 E13       30.12S
UVALDE         SUNNY     74  54  48 E6        30.10S
DEL RIO        SUNNY     75  53  46 SE9       30.05R
$$

SOUTHEAST TEXAS

CITY           SKY/WX    TMP DP  RH WIND       PRES   REMARKS
COLLEGE STN    SUNNY     74  50  42 SE3       30.10R
CALDWELL       SUNNY     73  50  43 E3        30.13S
CROCKETT       SUNNY     72  54  53 CALM      30.13R
BRENHAM        SUNNY     76  53  43 E5        30.11R
HUNTSVILLE     SUNNY     73  54  51 CALM      30.10S
CONROE         SUNNY     75  53  46 CALM      30.10S
HOUSTON BUSH   MOSUNNY   74  51  44 SE3       30.09R
HOUSTON HOBBY  MOSUNNY   77  54  44 E5        30.08R
PERLAND        SUNNY     78  53  41 E7        30.10R
WHARTON        SUNNY     75  56  52 E6        30.10R
$$

THE UPPER TEXAS COAST

CITY           SKY/WX    TMP DP  RH WIND       PRES   REMARKS
ORANGE         SUNNY     73  50  45 CALM      30.10R
PORT ARTHUR    SUNNY     77  52  41 CALM      30.08R
GALVESTON      SUNNY     76  56  49 E6        30.09R
ANGLETON       SUNNY     78  60  53 E7        30.08R
BAY CITY       SUNNY     77  62  59 E6        30.08R
$$

TEXAS COASTAL BEND, RIO GRANDE PLAINS DEEP SOUTH TEXAS

CITY           SKY/WX    TMP DP  RH WIND       PRES   REMARKS
VICTORIA       SUNNY     74  55  51 VRB3      30.09R
BEEVILLE       FAIR      80  58  47 SE8       30.08R
ROCKPORT       SUNNY     78  64  61 E6        30.08R
PORT ARANSAS   SUNNY     78  66  66 E7        30.07S
PORT LAVACA    SUNNY     75  62  63 E8        30.09R
CORPUS CHRISTI MOSUNNY   81  58  45 NE6       30.06S
KINGSVILLE NAS MOSUNNY   79  63  57 CALM      30.06S
COTULLA        SUNNY     78  50  37 E7        30.07F
LAREDO         SUNNY     83  52  34 S7        30.06R
BROWNSVILLE    SUNNY     80  62  54 SW10      30.06R
PORT ISABEL    SUNNY     81  62  52 SW8       30.05R
HEBBRONVILLE   SUNNY     82  44  26 S8        30.08R
MCALLEN        SUNNY     81  57  43 SE7       30.07R
WESLACO        SUNNY     82  55  40 S7        30.05R
FALFURRIAS     MOSUNNY   78  55  44 SW3       30.06S
EDINBURG       SUNNY     83  53  36 S5        30.06S
$$




USA.gov is the U.S. government's official web portal to all federal, state and local government web resources and services.